Temp
56 56 57 57 58 59 60 62 63 64 65 65 67 67 68 67 67 68 68 68 67 67 66 66 66 66 65 66 67 66 67 67 68 68 67 67 68 68 69 68 67 66 65 64 63 62 61 60 60 61 64 69
56 55 56 56 56 57 58 59 61 62 63 64 64 65 64 64 64 65 66 66 66 65 66 66 65 65 66 66 66 66 66 67 68 68 67 67 68 68 68 67 67 65 65 63 62 61 60 60 60 61 64 70
58 55 55 55 55 56 56 57 58 60 61 62 62 62 63 63 62 63 64 64 65 66 65 64 64 66 66 67 67 67 67 67 67 67 66 66 66 66 67 67 66 65 64 64 63 61 60 59 59 60 66 70
58 55 54 54 54 55 55 55 56 58 59 59 60 60 60 60 62 63 64 63 65 64 63 62 63 65 66 66 67 66 66 66 66 67 65 65 66 66 66 66 65 64 64 63 62 62 60 59 59 63 64 66
57 56 54 56 54 54 54 54 54 55 57 57 58 58 60 60 62 63 64 64 64 63 64 61 61 62 63 65 66 65 65 66 67 65 65 64 64 63 62 62 62 62 64 63 62 61 60 59 65 65 66 66
56 56 55 56 56 55 54 53 52 53 53 54 55 56 58 61 62 61 61 61 58 62 62 62 59 60 61 64 65 65 64 64 66 65 64 63 63 62 60 60 60 59 61 60 61 60 58 63 64 65 66 65
56 56 56 56 55 55 53 53 52 52 52 52 52 52 54 55 61 63 61 60 58 58 58 61 59 58 60 63 64 64 63 62 64 64 63 62 61 60 59 61 60 59 58 58 58 58 62 68 68 66 66 66
55 55 56 55 54 54 53 52 51 50 50 50 49 50 52 53 56 59 62 57 56 56 61 61 58 58 58 59 60 60 61 61 61 62 62 60 59 59 61 63 61 60 60 60 58 56 58 62 65 67 68 69
53 54 54 53 53 52 52 51 50 49 49 49 49 49 51 52 54 56 59 60 61 62 63 62 63 62 62 61 62 59 60 58 60 59 56 55 54 54 57 61 62 61 61 61 60 60 61 60 60 64 68 70
53 52 52 51 51 51 51 50 49 49 48 48 48 48 49 50 51 52 54 57 58 59 61 60 60 61 62 62 61 60 58 57 57 55 55 54 54 53 53 57 59 60 59 58 60 63 63 63 63 63 65 66
52 52 51 51 50 49 48 49 48 47 47 46 46 46 47 47 48 49 49 50 53 56 58 58 60 60 60 60 59 60 59 57 56 56 57 59 60 58 57 56 58 57 57 58 58 58 59 61 64 64 64 64
51 51 50 50 50 49 47 47 46 46 46 46 45 45 45 46 46 46 46 47 48 51 55 56 57 58 58 58 58 57 57 56 56 58 60 60 60 60 60 60 60 60 59 58 59 58 57 58 60 63 65 65
51 51 50 49 49 48 47 47 45 44 44 44 44 44 44 44 44 45 44 45 47 49 50 53 55 57 58 58 57 56 55 56 57 58 60 60 61 62 62 62 62 61 60 59 59 60 59 58 59 60 62 63
49 49 49 48 48 48 48 47 46 44 42 42 43 43 43 44 43 42 42 43 45 46 47 49 53 54 56 56 55 55 56 57 58 59 59 60 61 63 63 63 62 62 61 59 58 59 59 57 59 59 59 61
48 49 48 48 48 48 47 47 47 46 44 42 41 41 41 42 42 41 41 41 42 43 45 46 48 51 53 54 55 55 54 54 56 57 59 59 59 61 61 62 62 63 62 61 59 58 57 58 58 59 61 61
47 47 48 48 48 47 47 47 47 46 46 43 42 41 40 40 40 40 39 40 41 42 42 43 44 46 48 50 51 52 51 50 50 52 53 52 55 59 61 60 60 61 62 61 61 59 57 57 57 58 61 62
47 47 47 47 47 47 46 47 46 45 45 45 44 42 41 39 39 38 38 39 40 41 41 41 42 42 43 46 49 49 49 49 47 48 49 49 51 52 57 57 57 57 60 59 59 60 59 59 57 58 60 61
46 46 46 47 47 46 45 46 45 45 45 44 44 44 42 41 39 37 37 38 39 39 40 40 40 40 41 42 46 47 47 47 46 46 46 45 45 48 51 53 54 56 56 56 56 58 58 59 59 58 58 59
46 47 46 46 45 45 44 44 44 44 45 44 44 44 43 42 41 39 36 36 37 38 38 38 39 39 39 41 44 46 46 45 45 45 45 44 44 45 46 50 51 52 54 53 54 55 57 58 59 58 58 57
46 46 46 46 44 45 44 44 43 43 43 44 44 44 43 42 42 40 37 36 35 35 37 37 37 38 39 40 42 45 45 45 44 44 43 43 45 44 45 49 49 52 51 50 51 52 54 55 56 57 58 57
45 45 46 46 45 45 44 43 43 43 42 42 42 42 42 41 41 41 39 37 35 34 35 35 36 37 38 39 40 41 42 43 43 42 42 42 41 41 43 43 47 50 50 49 50 50 50 52 54 56 57 57
44 45 45 45 45 44 44 44 43 43 43 42 41 40 39 39 40 40 40 38 36 35 34 34 35 36 36 37 39 39 39 40 41 42 41 40 41 40 40 40 41 43 47 48 48 49 50 50 51 54 54 54
46 46 46 46 44 43 43 44 43 43 42 41 41 39 38 38 39 39 39 38 37 35 34 33 33 34 35 36 37 37 37 37 38 39 40 40 39 40 40 39 39 39 40 42 45 46 49 51 51 51 52 52
44 45 44 42 44 43 42 42 42 42 41 41 40 39 38 38 38 38 38 38 38 38 35 33 33 33 34 34 35 35 35 34 35 36 37 38 39 39 39 40 39 38 38 38 39 42 46 48 50 51 52 52
42 41 41 42 42 40 42 41 41 42 41 40 40 39 38 37 37 36 36 37 37 37 37 36 34 33 32 33 33 34 34 34 35 35 36 36 38 38 38 38 38 38 39 37 36 37 42 45 49 49 50 53
42 42 41 41 41 41 41 41 40 39 41 40 39 40 39 38 37 36 35 35 36 36 36 35 33 32 32 32 32 33 34 34 34 35 35 35 35 37 35 35 38 37 38 35 35 36 37 40 46 48 49 50
41 42 42 42 42 41 41 43 42 40 40 40 40 40 39 38 37 37 36 35 34 33 34 34 35 33 33 33 32 31 31 32 32 33 33 33 33 34 35 34 35 35 36 34 34 35 35 36 36 42 45 48
41 41 41 41 42 42 42 40 41 42 42 41 40 38 39 39 38 37 36 36 34 32 32 31 32 34 33 33 32 30 30 30 30 31 32 32 33 33 33 34 34 35 35 34 34 34 34 35 36 38 40 43
40 41 41 42 42 42 42 43 42 41 40 40 39 39 39 37 38 37 37 37 35 35 33 31 30 31 32 32 32 30 29 30 30 29 31 31 31 32 32 32 34 34 34 33 35 33 33 33 33 35 38 38
40 39 39 38 37 36 37 37 38 36 36 37 37 37 39 38 38 37 37 36 35 35 34 33 31 30 30 32 31 30 28 29 30 29 28 30 31 30 32 32 33 33 34 33 34 33 35 33 31 31 33 36
39 39 39 38 37 37 36 36 37 39 39 38 39 38 37 38 38 37 36 37 36 35 35 34 33 32 31 31 32 31 29 28 27 27 28 29 30 30 31 31 30 31 32 34 33 33 33 33 33 33 32 32
MSLP
1021.47 1021.11 1020.71 1020.39 1020.07 1019.67 1019.23 1018.63 1018.03 1017.43 1016.79 1016.11 1014.99 1014.19 1013.87 1013.87 1013.59 1013.75 1014.19 1014.27 1014.43 1014.71 1014.99 1014.95 1014.91 1014.95 1015.03 1015.23 1015.15 1015.27 1014.95 1014.87 1015.11 1015.35 1015.31 1015.23 1015.07 1015.15 1015.19 1015.31 1015.71 1015.95 1016.11 1016.39 1016.59 1016.95 1017.07 1016.63 1016.43 1016.55 1016.51 1016.67
1021.59 1021.35 1021.07 1020.75 1020.47 1020.11 1019.55 1019.03 1018.31 1017.75 1017.19 1016.63 1016.03 1015.11 1014.79 1014.39 1014.51 1014.63 1014.79 1014.87 1014.95 1015.07 1015.07 1015.23 1015.19 1015.23 1015.23 1015.23 1015.19 1015.39 1015.19 1015.19 1015.23 1015.35 1015.35 1015.35 1015.39 1015.55 1015.59 1015.51 1015.67 1015.95 1016.07 1016.39 1016.63 1016.75 1017.15 1017.07 1016.87 1016.75 1016.55 1016.71
1021.87 1021.75 1021.51 1021.23 1020.87 1020.43 1019.91 1019.39 1018.71 1018.11 1017.67 1017.27 1016.71 1016.31 1015.63 1015.51 1015.31 1015.07 1015.07 1015.23 1015.07 1015.11 1015.19 1015.43 1015.39 1015.23 1015.15 1015.15 1015.23 1015.27 1015.23 1015.35 1015.51 1015.55 1015.59 1015.63 1015.83 1016.03 1015.95 1015.79 1015.83 1016.07 1016.19 1016.43 1016.63 1016.87 1017.15 1017.39 1016.99 1016.91 1016.67 1016.79
1022.27 1022.03 1021.91 1021.55 1021.19 1020.75 1020.31 1019.83 1019.27 1018.71 1018.23 1017.75 1017.47 1017.03 1016.75 1016.35 1016.03 1015.71 1015.59 1015.55 1015.39 1015.39 1015.47 1015.63 1015.55 1015.47 1015.43 1015.23 1015.19 1015.27 1015.39 1015.59 1015.71 1015.79 1015.75 1015.87 1015.95 1016.15 1016.11 1015.99 1016.11 1016.23 1016.35 1016.47 1016.71 1016.91 1017.03 1017.23 1017.27 1017.19 1017.07 1017.03
1022.63 1022.47 1022.19 1021.67 1021.31 1020.87 1020.59 1020.27 1019.91 1019.43 1018.95 1018.63 1018.07 1017.79 1017.27 1016.79 1016.63 1016.39 1016.11 1015.91 1015.91 1015.95 1015.87 1015.75 1015.63 1015.47 1015.39 1015.39 1015.39 1015.43 1015.67 1015.71 1015.75 1015.87 1015.95 1015.99 1016.03 1016.11 1016.19 1016.23 1016.31 1016.47 1016.63 1016.79 1016.95 1017.03 1017.11 1017.23 1017.31 1017.39 1017.27 1017.15
1023.07 1022.83 1022.51 1022.19 1021.71 1021.31 1020.99 1020.75 1020.47 1020.11 1019.83 1019.35 1018.91 1018.43 1017.79 1017.43 1017.07 1016.91 1016.67 1016.47 1016.27 1016.23 1016.27 1016.11 1016.11 1016.03 1015.91 1015.79 1015.67 1015.63 1015.71 1015.95 1015.63 1015.83 1015.95 1016.11 1016.23 1016.27 1016.35 1016.55 1016.75 1016.87 1016.91 1017.03 1017.19 1017.23 1017.23 1017.31 1017.35 1017.35 1017.27 1017.19
1023.51 1023.23 1022.91 1022.51 1022.15 1021.83 1021.55 1021.23 1021.03 1020.75 1020.31 1019.99 1019.63 1019.07 1018.59 1018.11 1017.63 1017.23 1016.99 1016.79 1016.71 1016.59 1016.55 1016.47 1016.43 1016.51 1016.39 1016.15 1016.07 1015.91 1015.91 1016.03 1016.11 1015.87 1016.15 1016.27 1016.35 1016.55 1016.63 1016.71 1017.07 1017.23 1017.23 1017.31 1017.39 1017.51 1017.35 1017.15 1017.23 1017.27 1017.23 1017.23
1024.03 1023.67 1023.35 1023.11 1022.71 1022.39 1022.07 1021.75 1021.47 1021.27 1020.95 1020.55 1020.19 1019.79 1019.27 1018.83 1018.23 1017.63 1017.15 1016.95 1016.83 1016.75 1016.71 1016.67 1016.63 1016.63 1016.47 1016.39 1016.31 1016.27 1016.11 1016.15 1016.39 1016.31 1016.31 1016.43 1016.47 1016.67 1016.75 1016.91 1017.27 1017.39 1017.47 1017.51 1017.59 1017.67 1017.63 1017.39 1017.23 1017.19 1017.07 1017.11
1024.59 1024.31 1023.95 1023.63 1023.31 1022.99 1022.71 1022.39 1022.11 1021.79 1021.47 1021.15 1020.75 1020.39 1020.03 1019.63 1019.03 1018.31 1017.71 1017.31 1017.07 1016.91 1016.79 1016.67 1016.59 1016.59 1016.63 1016.55 1016.55 1016.51 1016.51 1016.47 1016.47 1016.63 1016.87 1016.83 1016.83 1016.99 1017.15 1017.19 1017.31 1017.47 1017.51 1017.59 1017.63 1017.67 1017.67 1017.71 1017.63 1017.31 1017.11 1016.99
1025.27 1024.87 1024.47 1024.19 1023.95 1023.59 1023.27 1022.99 1022.79 1022.43 1022.11 1021.71 1021.43 1021.15 1020.75 1020.23 1019.71 1019.15 1018.63 1018.03 1017.51 1017.23 1016.99 1016.75 1016.63 1016.59 1016.59 1016.63 1016.71 1016.67 1016.83 1016.91 1016.87 1016.95 1017.07 1017.11 1017.11 1017.27 1017.35 1017.39 1017.47 1017.55 1017.63 1017.75 1017.71 1017.59 1017.59 1017.63 1017.67 1017.51 1017.27 1017.23
1025.63 1025.39 1025.19 1024.91 1024.63 1024.27 1023.95 1023.67 1023.39 1023.07 1022.71 1022.47 1022.15 1021.75 1021.35 1020.91 1020.47 1020.11 1019.67 1019.07 1018.43 1017.75 1017.35 1017.03 1016.71 1016.55 1016.59 1016.67 1016.79 1016.83 1016.91 1017.07 1017.11 1017.15 1017.11 1017.03 1017.07 1017.27 1017.43 1017.51 1017.59 1017.75 1017.87 1017.87 1017.87 1017.83 1017.83 1017.79 1017.71 1017.59 1017.47 1017.39
1026.07 1025.87 1025.67 1025.43 1025.11 1024.83 1024.71 1024.35 1024.07 1023.83 1023.55 1023.19 1022.71 1022.43 1022.11 1021.75 1021.35 1020.95 1020.43 1019.95 1019.35 1018.75 1017.91 1017.43 1017.19 1016.71 1016.59 1016.63 1016.83 1016.99 1017.07 1017.15 1017.19 1017.11 1017.03 1016.99 1017.07 1017.15 1017.27 1017.43 1017.55 1017.71 1017.87 1017.95 1017.95 1017.91 1017.95 1017.95 1017.91 1017.71 1017.51 1017.43
1026.59 1026.35 1026.11 1025.87 1025.59 1025.35 1025.19 1024.87 1024.71 1024.59 1024.23 1023.75 1023.39 1023.03 1022.63 1022.31 1021.87 1021.39 1021.07 1020.63 1020.15 1019.51 1018.79 1018.07 1017.51 1017.11 1016.67 1016.59 1016.71 1016.99 1017.19 1017.23 1017.27 1017.23 1017.11 1017.07 1016.95 1016.95 1017.03 1017.19 1017.39 1017.55 1017.71 1017.87 1017.91 1017.91 1017.91 1017.99 1017.99 1017.91 1017.71 1017.63
1027.07 1026.75 1026.47 1026.23 1026.03 1025.83 1025.51 1025.31 1025.19 1024.99 1024.71 1024.43 1023.95 1023.51 1023.23 1022.95 1022.63 1022.23 1021.87 1021.43 1020.83 1020.19 1019.55 1018.83 1018.07 1017.51 1017.15 1016.95 1016.79 1016.87 1017.11 1017.23 1017.19 1017.19 1017.23 1017.15 1016.99 1016.87 1016.91 1016.91 1017.19 1017.35 1017.47 1017.63 1017.87 1017.95 1017.95 1018.03 1018.03 1017.99 1017.91 1017.79
1027.55 1027.19 1026.87 1026.67 1026.43 1026.23 1025.99 1025.79 1025.43 1025.23 1025.07 1024.91 1024.59 1024.35 1024.03 1023.51 1023.27 1022.91 1022.39 1022.03 1021.51 1020.83 1020.19 1019.71 1019.15 1018.35 1017.83 1017.47 1017.23 1016.95 1016.99 1017.19 1017.19 1017.19 1017.23 1017.19 1017.11 1016.99 1016.95 1016.95 1017.11 1017.15 1017.23 1017.35 1017.59 1017.87 1018.03 1018.03 1018.07 1017.99 1017.83 1017.83
1027.95 1027.67 1027.35 1027.07 1026.83 1026.63 1026.47 1026.15 1025.87 1025.59 1025.35 1025.19 1025.03 1024.83 1024.55 1024.19 1023.83 1023.31 1022.87 1022.51 1021.99 1021.43 1020.79 1020.35 1020.07 1019.51 1018.71 1018.23 1017.91 1017.71 1017.39 1017.15 1017.19 1017.27 1017.43 1017.59 1017.47 1017.11 1017.03 1017.15 1017.23 1017.19 1017.19 1017.27 1017.27 1017.55 1017.87 1018.03 1018.11 1018.07 1017.87 1017.71
1028.47 1028.23 1027.87 1027.55 1027.31 1027.15 1026.87 1026.51 1026.31 1026.03 1025.83 1025.59 1025.35 1025.15 1024.95 1024.67 1024.27 1023.83 1023.47 1022.99 1022.47 1021.87 1021.31 1020.87 1020.35 1020.03 1019.67 1019.19 1018.59 1018.23 1018.03 1017.87 1017.43 1017.31 1017.51 1017.83 1017.91 1017.63 1017.27 1017.31 1017.39 1017.47 1017.35 1017.39 1017.35 1017.39 1017.63 1017.75 1017.91 1017.99 1017.83 1017.75
1028.87 1028.59 1028.39 1028.11 1027.83 1027.59 1027.35 1026.99 1026.71 1026.47 1026.27 1026.03 1025.75 1025.43 1025.19 1024.91 1024.59 1024.43 1024.15 1023.59 1022.79 1022.15 1021.67 1021.35 1020.99 1020.75 1020.39 1019.91 1019.31 1018.75 1018.43 1018.39 1018.43 1017.83 1017.47 1017.79 1018.11 1017.91 1017.63 1017.43 1017.47 1017.51 1017.55 1017.67 1017.79 1017.63 1017.67 1017.63 1017.71 1017.83 1017.91 1017.91
1029.23 1028.99 1028.75 1028.43 1028.27 1027.99 1027.83 1027.47 1027.23 1026.95 1026.63 1026.35 1026.11 1025.83 1025.51 1025.31 1024.99 1024.79 1024.55 1024.07 1023.39 1022.67 1022.19 1021.75 1021.47 1021.23 1021.03 1020.51 1019.87 1019.35 1019.07 1018.87 1018.75 1018.75 1018.51 1018.11 1017.87 1018.07 1017.87 1017.71 1017.67 1017.55 1017.55 1017.83 1017.91 1017.91 1017.79 1017.67 1017.79 1017.83 1017.87 1018.03
1029.47 1029.23 1028.99 1028.75 1028.63 1028.31 1028.11 1027.83 1027.59 1027.35 1027.07 1026.75 1026.43 1026.15 1025.87 1025.67 1025.31 1025.03 1024.75 1024.43 1024.03 1023.43 1022.79 1022.35 1021.99 1021.75 1021.39 1020.95 1020.47 1020.03 1019.59 1019.31 1019.23 1019.07 1018.95 1019.07 1018.83 1018.23 1017.91 1017.75 1017.71 1017.55 1017.63 1017.87 1017.99 1018.11 1018.03 1017.95 1017.95 1017.87 1017.91 1017.99
1029.59 1029.35 1029.11 1028.95 1028.75 1028.55 1028.31 1028.07 1027.83 1027.59 1027.43 1027.15 1026.83 1026.55 1026.31 1026.03 1025.63 1025.31 1025.03 1024.75 1024.43 1024.07 1023.55 1023.03 1022.59 1022.15 1021.83 1021.35 1021.03 1020.79 1020.35 1019.83 1019.59 1019.43 1019.31 1019.19 1019.27 1019.43 1018.95 1018.23 1017.75 1017.63 1017.55 1017.71 1017.87 1018.11 1018.15 1018.11 1017.99 1017.83 1017.83 1017.95
1029.71 1029.47 1029.23 1029.03 1028.87 1028.75 1028.47 1028.31 1028.11 1027.87 1027.59 1027.39 1027.19 1027.03 1026.79 1026.47 1025.99 1025.67 1025.31 1025.07 1024.79 1024.47 1024.15 1023.79 1023.31 1022.87 1022.35 1021.83 1021.43 1021.31 1021.07 1020.51 1019.99 1019.59 1019.59 1019.51 1019.43 1019.51 1019.59 1019.35 1019.07 1018.43 1017.87 1017.63 1017.75 1017.87 1017.99 1018.07 1018.03 1017.83 1017.87 1017.95
1029.63 1029.43 1029.27 1029.11 1028.95 1028.79 1028.67 1028.47 1028.31 1028.15 1027.91 1027.71 1027.51 1027.39 1027.19 1026.79 1026.39 1026.07 1025.67 1025.35 1025.07 1024.83 1024.47 1024.15 1023.83 1023.39 1022.91 1022.27 1021.87 1021.71 1021.43 1020.83 1020.35 1020.03 1019.79 1019.83 1019.71 1019.63 1019.75 1019.87 1019.67 1019.63 1019.55 1018.91 1018.19 1017.87 1017.87 1017.87 1017.87 1017.87 1017.87 1017.91
1029.59 1029.39 1029.15 1028.99 1028.79 1028.71 1028.63 1028.63 1028.47 1028.27 1028.19 1028.03 1027.79 1027.71 1027.43 1027.11 1026.83 1026.47 1026.11 1025.71 1025.31 1024.99 1024.75 1024.43 1024.07 1023.67 1023.19 1022.63 1022.07 1021.83 1021.55 1021.23 1020.91 1020.67 1020.39 1020.23 1020.03 1019.83 1019.83 1019.75 1019.71 1019.91 1019.99 1019.71 1019.43 1018.75 1018.23 1018.07 1017.91 1017.87 1017.83 1017.79
1029.75 1029.63 1029.31 1029.07 1028.95 1028.91 1028.71 1028.75 1028.63 1028.43 1028.27 1028.23 1028.07 1027.91 1027.67 1027.43 1027.15 1026.87 1026.47 1026.11 1025.71 1025.31 1024.95 1024.63 1024.31 1023.91 1023.55 1023.19 1022.75 1022.35 1022.23 1021.95 1021.51 1021.27 1021.11 1020.79 1020.39 1020.15 1020.07 1020.03 1020.03 1019.95 1019.95 1020.07 1019.71 1019.55 1019.03 1018.31 1018.11 1017.99 1017.95 1017.71
1029.99 1029.87 1029.83 1029.51 1029.27 1029.11 1028.83 1028.71 1028.59 1028.55 1028.43 1028.39 1028.15 1027.99 1027.83 1027.55 1027.39 1027.15 1026.87 1026.55 1026.19 1025.79 1025.39 1025.03 1024.71 1024.43 1024.15 1023.79 1023.63 1023.31 1022.87 1022.35 1021.87 1021.59 1021.35 1021.07 1020.71 1020.67 1020.67 1020.43 1020.27 1020.15 1019.95 1020.03 1020.31 1019.99 1019.35 1018.79 1018.07 1017.83 1017.87 1017.79
1030.31 1030.03 1029.91 1029.71 1029.39 1029.19 1028.91 1028.67 1028.75 1028.71 1028.59 1028.43 1028.23 1027.99 1027.87 1027.71 1027.51 1027.27 1027.07 1026.87 1026.59 1026.23 1025.87 1025.47 1025.07 1024.75 1024.47 1024.19 1023.91 1023.55 1023.11 1022.75 1022.39 1022.19 1021.99 1021.63 1021.35 1020.87 1020.75 1020.79 1020.75 1020.63 1020.59 1020.47 1020.67 1020.47 1020.31 1018.87 1018.27 1017.83 1017.95 1017.63
1030.47 1030.31 1030.11 1029.83 1029.51 1029.19 1028.99 1028.83 1028.63 1028.43 1028.27 1028.23 1028.15 1027.99 1027.83 1027.79 1027.63 1027.39 1027.23 1026.99 1026.83 1026.55 1026.27 1025.99 1025.63 1025.15 1024.79 1024.47 1024.27 1024.03 1023.75 1023.31 1023.11 1022.83 1022.51 1022.15 1021.71 1021.43 1021.15 1020.99 1020.95 1020.99 1020.91 1020.91 1020.55 1019.75 1019.67 1019.47 1018.79 1017.23 1017.15 1017.35
1030.43 1030.11 1029.75 1029.39 1029.11 1028.91 1028.63 1028.39 1028.19 1028.07 1028.07 1028.07 1028.15 1027.99 1027.79 1027.75 1027.71 1027.55 1027.31 1027.07 1026.95 1026.75 1026.51 1026.27 1026.03 1025.71 1025.23 1024.91 1024.63 1024.43 1024.15 1023.79 1023.67 1023.63 1023.31 1022.87 1022.35 1022.07 1022.11 1021.75 1021.27 1021.07 1020.99 1020.91 1020.91 1020.75 1020.31 1019.63 1019.23 1018.15 1018.11 1018.55
1030.43 1030.19 1029.83 1029.63 1029.39 1029.03 1028.71 1028.47 1028.11 1028.19 1028.19 1028.07 1027.99 1027.95 1027.87 1027.79 1027.63 1027.59 1027.43 1027.19 1027.03 1026.87 1026.67 1026.43 1026.19 1025.95 1025.59 1025.19 1024.91 1024.79 1024.59 1024.35 1024.07 1023.95 1023.87 1023.51 1023.03 1022.79 1022.59 1022.47 1021.75 1021.35 1021.03 1020.87 1020.91 1021.07 1021.07 1020.99 1020.31 1020.23 1019.87 1019.15
1030.35 1030.11 1029.75 1029.71 1029.59 1029.35 1029.03 1028.67 1028.23 1028.11 1028.19 1027.99 1027.87 1027.83 1027.83 1027.63 1027.51 1027.51 1027.43 1027.23 1027.11 1026.91 1026.75 1026.51 1026.27 1026.07 1025.71 1025.39 1025.07 1024.91 1024.83 1024.75 1024.63 1024.47 1024.27 1023.83 1023.47 1023.31 1023.15 1022.99 1022.67 1022.03 1021.47 1020.83 1020.87 1021.07 1021.19 1021.23 1021.23 1020.99 1020.51 1019.91
Wind_Speed
23 25 27 27 27 27 26 27 26 26 27 30 22 19 9 11 5 7 12 12 11 13 11 9 9 10 4 5 2 4 8 8 12 12 10 11 11 14 12 14 13 14 14 11 9 6 2 6 7 8 7 6
21 25 27 27 27 27 27 28 27 27 27 28 24 21 17 18 18 16 14 12 11 9 9 7 7 4 3 3 5 6 5 7 9 11 11 10 9 10 11 13 14 14 14 13 11 9 4 2 7 7 7 6
16 25 25 25 26 26 27 28 28 28 26 25 25 19 14 12 10 11 10 8 5 5 5 2 4 3 4 4 5 7 6 8 7 9 11 11 9 8 9 11 12 12 14 13 11 10 9 3 5 4 2 5
15 19 24 24 24 25 26 28 28 27 26 24 22 22 20 15 9 5 3 3 4 6 5 4 3 3 4 5 4 3 6 8 10 8 13 12 11 9 7 10 10 10 11 12 11 9 8 7 5 2 1 2
14 15 21 21 22 23 25 25 27 26 24 22 19 18 16 14 10 8 6 3 4 4 3 2 2 3 4 4 5 3 8 10 11 11 12 13 12 11 10 9 9 7 8 8 9 8 9 9 4 3 3 3
11 13 15 17 16 16 18 20 22 19 17 18 16 20 16 11 8 6 5 5 6 3 3 2 5 4 3 6 3 4 4 5 12 15 14 12 12 11 11 10 5 4 5 5 3 7 9 5 3 3 3 3
12 14 12 14 15 12 17 17 17 16 18 16 15 15 14 13 10 9 6 6 8 7 6 5 6 4 5 3 3 7 6 3 5 15 13 13 11 11 10 6 3 3 3 3 5 1 4 5 5 5 4 4
11 12 12 12 12 12 12 14 13 15 15 15 16 15 13 12 13 11 8 8 10 8 5 4 3 3 4 3 5 3 5 5 4 8 12 13 11 6 3 4 3 2 2 2 1 1 2 2 2 5 6 5
12 12 11 11 12 12 12 12 12 12 13 14 16 15 13 14 13 13 9 9 8 7 5 5 4 2 0 0 1 1 2 2 5 4 3 5 5 4 3 3 4 2 2 1 1 1 1 1 2 1 4 5
11 12 12 12 12 12 12 12 13 12 12 12 14 14 14 13 13 14 12 10 9 8 7 6 4 4 2 1 1 2 2 2 3 4 3 3 5 4 2 3 3 2 2 1 1 2 2 2 3 3 2 1
11 11 11 11 12 12 12 12 13 13 12 12 13 14 14 13 13 12 12 12 12 11 7 6 5 3 2 2 1 0 2 2 2 3 3 4 4 4 4 4 3 3 2 1 0 0 1 1 2 3 2 2
12 11 12 12 12 11 13 11 12 12 12 13 13 15 13 13 11 11 12 12 12 13 10 7 7 2 2 2 2 1 1 1 1 2 3 4 4 5 5 4 4 3 3 2 1 1 0 1 2 3 2 2
11 11 11 12 12 11 13 11 11 12 12 12 12 12 15 15 13 12 12 12 12 12 12 12 8 6 1 2 3 2 1 1 2 2 3 4 5 5 5 5 5 4 3 2 1 1 1 1 2 2 2 2
11 11 12 12 12 11 11 11 11 12 10 10 11 12 14 15 14 11 11 12 12 12 12 12 10 8 5 3 2 3 2 2 2 3 3 4 5 6 6 6 5 5 4 3 2 1 1 1 1 1 1 1
12 12 12 12 11 11 11 12 11 10 10 10 10 12 14 13 14 12 11 12 12 11 11 10 13 10 7 6 4 2 3 2 2 2 3 4 5 5 5 5 5 6 5 4 3 2 1 1 1 2 1 1
12 12 12 12 11 11 11 12 10 10 10 11 10 12 12 12 12 12 10 11 12 12 10 8 10 11 10 9 7 6 3 4 3 2 1 3 4 3 4 4 4 4 4 4 4 4 3 3 3 2 2 2
11 11 11 11 11 11 11 10 10 10 10 10 10 11 13 13 14 12 12 11 12 12 11 10 9 10 11 10 9 7 7 5 1 4 2 0 3 2 2 3 3 1 2 3 3 4 3 3 2 1 1 1
10 11 10 10 10 10 11 10 10 10 10 10 10 11 12 13 13 12 12 12 12 10 10 11 9 9 10 11 11 9 6 5 6 2 5 4 1 2 2 4 3 4 4 1 1 3 3 3 2 2 2 1
11 11 10 9 9 9 10 9 9 9 10 10 10 10 10 13 12 13 12 13 12 12 9 9 10 11 10 10 11 9 8 5 4 5 5 2 6 3 2 2 2 4 3 3 4 2 2 3 2 2 2 1
10 10 10 9 9 9 10 8 9 9 9 10 10 10 10 13 12 13 14 13 12 11 10 9 9 9 10 12 9 9 8 6 5 5 4 5 6 3 5 5 4 4 3 3 3 2 2 2 2 3 2 2
9 9 9 10 9 10 9 9 9 8 8 9 9 10 10 12 12 12 13 13 12 10 11 10 9 8 10 10 8 9 8 7 5 5 5 3 4 7 6 3 3 3 3 4 4 3 3 2 2 3 3 3
8 8 8 8 7 9 9 10 9 9 8 8 9 9 10 12 11 12 13 12 12 10 10 10 10 10 10 8 7 7 7 8 8 7 6 6 4 4 5 5 5 4 2 3 3 3 3 3 2 2 2 2
8 8 7 7 8 8 9 8 8 8 8 9 9 9 11 11 10 11 12 12 11 10 10 9 9 10 12 9 7 6 7 7 9 10 8 6 5 3 2 4 4 5 7 6 2 3 3 3 3 2 2 1
8 8 9 9 9 8 8 8 8 8 8 8 9 10 10 11 10 11 11 12 11 10 9 9 9 10 11 10 9 9 10 10 10 11 11 9 8 6 3 2 3 4 5 5 6 4 1 2 2 4 3 4
8 9 9 9 9 9 8 8 8 8 8 8 8 10 10 10 9 11 11 11 11 11 10 9 9 10 10 10 10 9 10 10 11 11 10 8 5 7 6 3 3 3 3 4 4 5 5 3 4 4 5 6
7 6 6 7 8 7 7 7 8 8 7 7 7 9 10 9 10 10 10 11 11 10 10 9 9 9 9 9 9 8 8 10 10 10 11 11 8 7 5 3 5 3 4 1 1 4 4 5 4 5 5 7
6 6 5 5 6 6 7 5 4 5 5 7 7 8 8 8 9 10 9 10 10 8 9 10 9 9 8 9 9 9 10 10 11 10 10 10 9 9 5 3 3 2 3 1 3 2 4 5 4 4 3 6
5 5 6 5 5 5 5 5 4 4 5 6 7 8 7 7 9 9 9 9 10 7 8 8 8 8 8 8 9 8 8 9 10 11 11 10 9 8 7 6 3 2 0 1 3 1 2 3 3 5 7 5
6 6 6 6 6 5 5 4 4 6 6 6 6 6 7 8 8 9 8 8 9 8 8 7 7 7 6 6 8 7 7 8 8 9 8 10 9 10 8 8 4 1 1 1 1 1 2 1 3 3 4 3
5 6 6 7 8 8 8 8 8 7 8 7 6 6 6 6 6 7 7 7 8 8 8 8 7 6 6 5 5 5 5 6 7 9 9 9 8 9 10 8 5 5 1 1 2 3 2 1 2 4 6 5
5 6 7 7 7 8 8 8 7 6 5 5 5 4 5 5 5 5 6 7 7 8 8 7 7 7 6 5 5 4 4 5 6 6 7 7 8 8 8 9 6 7 6 1 1 1 4 4 2 1 3 3
Wind_Direction
358 359 357 356 354 352 352 350 351 347 346 346 1 352 0 9 338 126 129 109 105 91 84 73 72 81 63 336 294 209 152 152 147 149 140 136 138 147 140 130 135 121 116 107 99 94 38 98 110 127 123 126
360 1 358 356 354 353 354 354 353 352 351 354 358 36 40 68 58 63 60 64 76 92 97 107 109 123 178 211 287 240 170 178 170 163 147 127 124 137 129 134 135 125 127 129 127 116 82 57 133 143 142 133
359 2 356 356 355 356 356 355 355 354 356 355 359 6 56 54 83 99 110 125 123 98 96 84 130 170 217 241 247 255 243 214 189 165 133 119 118 124 124 129 129 128 129 131 137 136 144 142 109 102 101 138
359 1 357 356 356 357 358 358 357 356 358 357 356 357 356 1 11 56 74 74 103 117 105 59 39 40 2 352 326 251 232 215 197 162 126 127 124 127 132 129 124 130 140 142 154 156 138 135 124 96 104 126
0 358 357 1 357 357 0 1 360 358 360 358 357 353 350 351 357 352 3 1 22 58 65 49 36 27 5 333 303 258 254 215 190 153 127 120 106 87 66 64 88 109 140 149 155 155 146 147 155 161 168 144
1 356 358 358 356 359 359 1 1 0 359 1 2 354 354 347 345 344 345 344 359 20 353 313 319 329 298 274 237 239 182 206 167 142 129 111 99 94 81 73 63 64 81 92 117 154 154 158 162 167 172 154
0 359 1 360 0 359 0 1 3 2 1 2 358 357 357 351 339 333 327 340 345 339 341 319 304 299 309 280 291 145 116 122 158 130 120 112 108 97 92 86 75 69 65 57 62 38 183 184 175 173 174 170
3 3 4 3 1 2 1 1 2 3 2 2 0 358 355 352 341 328 325 334 336 334 315 278 267 333 357 9 49 85 105 103 99 113 120 115 106 98 100 114 108 88 91 103 60 31 335 314 165 180 182 188
3 358 4 3 3 2 6 3 3 3 4 0 359 359 358 353 347 346 339 326 320 310 301 267 245 239 280 12 133 62 27 41 124 97 75 88 89 94 86 116 128 136 132 125 173 201 212 270 293 243 204 203
0 2 4 4 3 2 6 7 6 4 3 1 2 357 356 353 356 354 349 343 328 308 298 264 223 206 214 140 135 129 69 58 101 86 87 100 99 86 78 91 97 109 113 110 208 215 208 212 230 239 221 219
8 9 5 3 3 3 4 7 11 8 3 3 1 2 0 359 357 355 353 350 345 339 327 307 254 200 176 153 103 61 134 115 124 126 138 144 135 128 123 113 117 106 103 119 214 331 321 282 257 251 227 203
10 9 7 5 4 8 4 5 9 6 4 0 2 5 2 1 357 356 355 353 350 342 331 314 311 295 142 128 94 57 59 111 152 164 147 148 150 147 142 142 143 144 131 133 191 180 274 303 288 273 273 245
8 8 8 7 7 7 3 9 7 3 3 6 2 5 7 6 1 359 358 354 350 344 344 338 324 310 298 135 132 121 110 169 173 180 175 165 169 169 162 163 165 159 144 143 164 209 188 223 265 300 310 310
8 6 7 8 7 4 4 6 0 1 6 4 3 5 4 7 8 3 359 352 349 354 352 343 335 330 329 321 125 139 158 198 195 192 198 195 182 177 178 176 172 178 167 153 146 212 193 194 268 266 278 318
7 6 9 7 4 4 3 359 360 5 4 1 3 4 359 3 5 1 1 359 354 356 357 356 347 341 339 328 321 192 156 155 196 208 219 206 193 188 184 173 165 195 181 169 164 168 187 188 226 241 225 196
9 7 5 5 6 5 359 359 1 2 4 4 4 360 1 2 1 359 358 358 358 358 358 359 356 349 351 347 339 331 315 167 148 166 334 330 298 200 176 159 169 200 188 188 180 169 177 166 208 208 230 197
9 7 5 5 6 4 359 2 1 2 2 360 358 359 0 0 360 2 360 352 357 2 3 1 358 359 354 346 335 334 337 331 352 109 123 233 314 290 163 160 157 159 207 195 179 175 176 182 176 202 227 204
12 9 7 5 3 3 0 4 1 1 1 360 357 356 359 358 360 1 356 354 352 360 3 6 7 2 354 348 339 337 348 338 328 281 160 162 159 248 202 171 167 173 183 173 167 188 163 195 175 173 196 223
15 11 11 8 5 3 0 359 1 360 358 359 359 358 359 1 359 357 355 355 354 356 1 6 7 8 356 347 343 352 347 347 340 332 322 195 176 201 212 204 165 182 172 169 186 191 190 189 172 184 190 183
16 15 13 9 7 6 5 3 3 2 359 358 359 0 359 359 358 360 357 355 355 353 358 5 8 4 357 353 347 350 356 359 357 344 340 338 325 224 198 190 186 186 167 168 172 174 203 179 182 194 196 188
21 18 15 13 11 8 6 6 5 2 359 360 2 1 0 358 356 0 0 357 354 354 356 357 360 359 1 355 352 357 351 4 1 357 343 347 1 340 311 283 205 182 169 173 167 176 183 195 198 206 199 191
11 13 14 16 15 12 7 7 6 2 1 3 3 360 358 355 356 359 360 359 356 353 353 352 356 353 360 356 359 353 356 2 3 8 7 350 11 4 347 332 320 285 250 171 170 174 185 178 211 217 203 190
8 8 11 12 11 12 13 9 7 3 3 2 1 2 354 356 357 358 357 356 357 356 353 349 350 352 355 2 4 2 359 6 10 11 1 356 351 18 13 0 359 342 329 328 295 183 192 199 217 206 192 205
8 9 8 8 7 9 13 9 4 4 6 360 2 359 356 357 357 357 355 357 356 358 356 351 351 349 352 353 4 11 14 10 13 11 6 358 347 348 349 37 54 28 351 329 323 318 301 251 248 231 219 219
4 5 3 4 6 4 3 3 359 2 3 359 359 356 356 356 358 354 354 357 358 359 358 359 353 354 357 357 360 11 11 9 15 17 15 359 346 355 350 1 34 43 28 350 318 319 298 256 230 244 246 234
1 6 7 355 356 356 355 357 360 358 357 356 352 357 359 357 356 354 355 356 355 357 0 358 358 359 357 1 0 359 359 4 10 11 14 12 11 5 343 344 12 7 26 39 332 331 298 275 247 228 239 248
352 350 351 348 349 353 347 354 358 347 342 349 350 354 1 357 358 356 355 357 353 355 358 359 1 0 356 1 1 359 6 6 9 12 11 10 14 355 4 322 359 11 69 292 357 263 290 251 234 202 236 242
325 317 308 297 318 330 335 336 345 346 350 354 352 353 358 359 358 355 355 356 355 354 354 356 355 353 360 2 5 2 1 6 9 6 6 6 7 8 0 358 355 20 286 75 17 274 234 322 311 254 239 224
321 316 313 321 306 286 310 309 327 347 352 356 350 345 353 353 355 352 353 354 356 354 351 352 352 352 356 2 5 5 3 8 6 2 2 2 6 15 8 346 335 17 349 237 193 280 327 276 231 255 11 357
320 316 317 328 333 332 332 331 336 342 346 344 345 347 338 339 347 349 349 352 352 356 349 352 350 349 353 359 7 12 3 4 2 5 2 3 5 6 6 345 351 349 32 260 228 221 260 319 316 343 325 330
314 314 316 320 320 319 317 317 324 329 322 323 328 328 327 330 336 343 344 347 353 352 351 349 352 350 351 356 2 8 12 13 6 0 358 356 9 9 6 4 357 359 347 337 221 235 247 233 209 173 354 328